Lafayette, IN

9:56 PM EDT on April 23, 2018 (GMT -0400)
Purdue Univ

Weather History for KLAF - May, 2014

Change the Weather History Date:

Saturday, May 10, 2014

  Actual Average Record
Temperature  
Mean Temperature 61 °F 60 °F  
Max Temperature 73 °F 71 °F 89 °F (2011)
Min Temperature 49 °F 49 °F 25 °F (1966)
Degree Days  
Heating Degree Days 4 6  
Month to date heating degree days 70 74  
Since 1 July heating degree days 6438 5564  
Cooling Degree Days 0 1  
Month to date cooling degree days 19 10  
Year to date cooling degree days 20 23  
Growing Degree Days 12 (Base 50)    
Moisture  
Dew Point 45 °F    
Average Humidity 59    
Maximum Humidity 93    
Minimum Humidity 23    
Precipitation  
Precipitation 0.00 in 0.13 in 1.95 in (1981)
Month to date precipitation 0.28 1.29  
Year to date precipitation 9.32 11.12  
Sea Level Pressure  
Sea Level Pressure 29.94 in    
Wind  
Wind Speed 4 mph (NW)    
Max Wind Speed 15 mph    
Max Gust Speed 19 mph    
Visibility 10 miles    
Events      
T = Trace of Precipitation, MM = Missing Value Source: NWS Daily Summary

Daily Weather History Graph

Daily Weather History Graph

Search for Another Location

Airport or City:

Astronomy

May. 10, 2014 Rise Set
Actual Time 6:36 AM EDT 8:52 PM EDT
Civil Twilight 6:06 AM EDT 9:22 PM EDT
Nautical Twilight 5:28 AM EDT 10:00 PM EDT
Astronomical Twilight 4:47 AM EDT 10:41 PM EDT
Moon 4:47 PM EDT (5/10) 4:10 AM EDT (5/10)
Length of Visible Light 15h 16m
Length of Day
14h 15m
Waxing Gibbous, 82% of the Moon is Illuminated
May 10
Waxing Gibbous
May 14
Full
May 21
Last Quarter
May 28
New
Jun 5
First Quarter

Hourly Weather History & Observations

Time (EDT) Temp. Dew Point Humidity Pressure Visibility Wind Dir Wind Speed Gust Speed Precip Events Conditions
12:54 AM 57.0 °F 55.0 °F 93% 29.89 in 10.0 mi SSE 3.5 mph - N/A   Clear
1:54 AM 55.9 °F 54.0 °F 93% 29.92 in 10.0 mi NW 5.8 mph - N/A   Clear
2:54 AM 55.0 °F 48.0 °F 77% 29.92 in 10.0 mi North 6.9 mph - N/A   Clear
3:54 AM 53.1 °F 48.0 °F 83% 29.92 in 10.0 mi Calm Calm - N/A   Clear
4:54 AM 52.0 °F 48.9 °F 89% 29.91 in 10.0 mi Calm Calm - N/A   Clear
5:54 AM 50.0 °F 48.0 °F 93% 29.94 in 10.0 mi Calm Calm - N/A   Clear
6:54 AM 50.0 °F 48.0 °F 93% 29.94 in 10.0 mi Calm Calm - N/A   Clear
7:54 AM 52.0 °F 50.0 °F 93% 29.96 in 10.0 mi Calm Calm - N/A   Clear
8:54 AM 57.9 °F 51.1 °F 78% 29.96 in 10.0 mi Calm Calm - N/A   Clear
9:54 AM 63.0 °F 46.9 °F 56% 29.97 in 10.0 mi ESE 4.6 mph - N/A   Partly Cloudy
10:54 AM 64.9 °F 46.0 °F 50% 29.97 in 10.0 mi SE 3.5 mph - N/A   Clear
11:54 AM 68.0 °F 45.0 °F 43% 29.96 in 10.0 mi North 4.6 mph - N/A   Clear
12:54 PM 70.0 °F 43.0 °F 38% 29.96 in 10.0 mi West 8.1 mph - N/A   Clear
1:54 PM 70.0 °F 41.0 °F 35% 29.95 in 10.0 mi Variable 3.5 mph - N/A   Clear
2:54 PM 71.1 °F 41.0 °F 34% 29.94 in 10.0 mi West 11.5 mph 19.6 mph N/A   Clear
3:54 PM 72.0 °F 39.9 °F 31% 29.94 in 10.0 mi NNW 10.4 mph - N/A   Clear
4:54 PM 72.0 °F 39.9 °F 31% 29.93 in 10.0 mi WNW 11.5 mph - N/A   Clear
5:54 PM 73.0 °F 33.1 °F 23% 29.93 in 10.0 mi West 12.7 mph - N/A   Clear
6:54 PM 72.0 °F 36.0 °F 27% 29.93 in 10.0 mi West 5.8 mph - N/A   Clear
7:54 PM 70.0 °F 36.0 °F 29% 29.93 in 10.0 mi NNE 5.8 mph - N/A   Clear
8:54 PM 64.9 °F 42.1 °F 43% 29.93 in 10.0 mi Calm Calm - N/A   Clear
9:54 PM 55.9 °F 44.1 °F 64% 29.96 in 10.0 mi Calm Calm - N/A   Clear
10:54 PM 55.0 °F 42.1 °F 62% 29.98 in 10.0 mi Calm Calm - N/A   Clear
11:54 PM 55.0 °F 45.0 °F 69% 30.00 in 10.0 mi Calm Calm - N/A   Clear